Location: Barruelo
(41.2448°N, 3.8231°W)
Time: 17:35:23
(UTC+00:00)

SMAP - Pass Details

Date: 11 December 2025
Orbit: 681 x 683 km, 98.1° (Epoch: 15 January)

Event Time Altitude Azimuth Distance (km) Brightness Sun altitude
Rises 17:35:27 0° 163° (SSE) 3,031 6.5 -9.1°
Reaches altitude 10° 17:37:40 10° 163° (SSE) 2,120 5.7 -9.5°
Maximum altitude 17:42:19 83° 75° (ENE) 693 3.0 -10.3°
Drops below altitude 10° 17:47:00 10° 349° (NNW) 2,136 5.5 -11.1°
Sets 17:49:15 0° 348° (NNW) 3,055 6.3 -11.5°
